Wind_Speed
9 8 7 7 7 7 7 6 7 7 7 7 7 8 8 8 8 8 8 8 8 8 9 10 10 11 13 16 19 20 17 16 16 15 16 18 19 19 19 20 21 22 24 25 27 29 32 35 36 36 36 37 37 37 36 37 37 37 37 38 38 38 38 38 39 40 41 41 42 42 42 42 42 42 42 43 43 44 44 43 43 44 44 43 42 41 40 39
8 8 7 8 8 8 8 7 7 7 7 7 7 7 7 7 7 8 9 10 12 12 12 13 13 14 17 19 22 23 24 25 24 19 18 19 19 18 18 19 20 21 21 20 20 22 24 27 31 33 35 36 37 37 38 38 38 38 38 38 38 38 38 38 39 40 41 42 42 43 43 43 43 43 43 44 45 45 46 45 45 46 47 46 46 45 43 42
12 12 12 12 13 13 13 13 13 13 14 14 13 13 13 14 15 16 16 16 16 16 18 18 19 21 22 22 23 28 32 32 28 24 23 22 20 18 18 19 20 20 19 17 14 14 16 19 21 25 29 32 35 36 38 38 38 38 38 38 38 38 38 38 39 40 41 41 42 43 44 44 44 44 44 45 46 46 47 47 47 48 48 48 48 47 46 44
20 20 20 21 21 21 21 22 22 22 23 22 22 22 22 22 21 21 21 20 21 23 25 26 27 27 26 24 26 33 35 31 30 32 30 26 22 19 17 18 21 21 19 17 15 11 10 12 14 17 20 25 30 33 35 37 37 37 38 38 38 38 38 38 39 39 40 41 42 42 43 44 44 44 45 45 46 46 47 48 49 49 49 48 48 48 47 46
27 27 27 27 27 28 28 28 28 29 29 28 28 27 27 26 26 25 24 26 29 30 30 30 30 29 28 27 30 37 34 32 37 38 36 32 28 23 20 22 24 25 24 20 16 13 9 7 8 10 13 17 22 28 31 33 34 35 36 37 37 37 37 37 38 38 39 40 40 41 42 42 43 44 44 45 46 46 47 48 49 49 49 49 49 49 48 47
32 32 32 32 32 32 32 32 32 32 31 31 31 30 30 30 29 29 29 32 32 31 30 29 29 29 29 28 33 39 34 33 38 37 38 39 37 34 32 31 30 31 32 28 23 20 16 11 6 4 5 9 14 21 26 29 31 32 33 34 34 35 35 36 36 37 37 38 39 39 39 40 41 42 43 44 45 45 46 47 48 49 49 50 49 49 48 47
35 35 34 34 34 34 34 34 34 34 33 33 33 33 32 32 32 31 31 31 30 30 30 29 29 28 29 29 34 38 33 33 36 36 38 40 41 41 40 39 38 37 37 35 33 32 29 22 15 9 6 3 6 12 18 22 25 27 29 30 31 32 33 33 34 35 36 36 37 37 38 38 39 40 40 41 42 43 44 46 47 47 48 49 49 48 46 45
36 36 35 35 34 34 34 34 34 34 34 34 33 33 31 31 31 30 30 29 29 29 29 29 28 28 29 29 33 35 31 31 34 34 36 38 40 40 41 42 41 42 41 40 40 41 38 34 27 19 14 10 4 2 9 14 18 21 23 25 27 29 31 32 33 34 34 35 36 37 37 38 38 39 39 40 40 41 42 44 45 46 47 48 49 48 47 47
36 36 35 35 34 34 34 33 33 32 32 31 31 30 30 30 29 29 28 28 28 27 27 28 27 27 26 27 32 32 28 29 32 33 35 37 38 39 40 40 40 42 42 42 43 43 43 42 37 30 25 18 12 7 2 5 10 14 17 19 22 25 27 29 31 32 33 34 36 37 38 38 38 39 39 40 40 40 41 42 43 44 45 47 48 49 50 50
35 34 34 33 33 32 31 31 31 30 29 29 28 28 28 27 27 27 26 26 26 25 25 25 24 24 24 26 30 28 26 29 31 31 33 35 36 37 38 37 38 39 40 42 43 43 45 45 43 39 35 29 22 16 9 5 3 7 10 14 17 20 22 24 27 29 30 32 34 35 37 38 38 39 40 40 40 41 41 41 42 43 44 45 46 48 49 50
32 31 31 30 30 29 28 28 28 28 27 26 26 26 25 25 24 24 24 24 23 23 23 22 22 22 23 26 27 24 26 29 29 31 32 33 35 36 36 35 36 37 38 40 40 42 45 46 46 42 42 40 34 27 20 14 7 3 5 8 12 15 18 20 23 25 27 29 30 32 34 35 36 38 39 39 40 40 41 41 41 42 43 44 44 46 46 48
29 28 28 28 27 26 26 26 26 25 25 25 24 24 24 23 23 23 22 22 21 21 21 21 22 21 22 24 23 23 26 27 28 29 30 32 33 33 34 34 35 35 36 37 37 40 42 45 45 42 44 44 39 36 31 25 19 13 8 5 6 10 13 16 18 21 23 25 27 28 30 32 33 35 36 36 38 38 39 39 40 40 41 42 43 43 44 45
26 26 26 25 25 24 24 24 24 24 23 23 23 23 23 22 22 21 21 21 21 21 21 21 22 22 22 22 21 23 24 25 26 27 28 30 30 31 32 32 33 34 35 35 35 36 38 42 42 39 41 40 38 37 35 33 30 26 21 16 11 7 6 9 12 16 19 22 23 25 27 29 30 32 33 34 35 36 37 37 38 38 39 40 41 41 42 43
25 24 24 24 23 23 23 23 23 23 22 22 23 23 22 22 22 21 21 21 22 22 22 22 22 22 22 21 21 22 22 23 25 26 28 28 28 30 30 30 31 32 33 33 34 34 36 39 38 35 35 35 35 35 34 34 33 32 30 27 24 20 17 13 9 8 10 13 16 20 23 25 26 28 29 31 32 33 34 35 35 36 37 37 38 39 40 40
24 24 23 23 23 23 23 23 23 22 22 22 22 22 22 21 21 21 21 21 21 21 21 21 21 21 21 20 20 22 22 23 25 25 26 26 27 28 28 29 30 30 31 31 32 33 34 36 34 32 31 31 31 32 32 32 32 32 31 29 28 26 25 23 21 18 14 10 8 9 12 15 18 21 24 26 27 28 30 31 32 33 34 35 36 37 37 38
24 23 23 23 23 23 22 22 22 22 21 21 21 21 21 20 20 20 20 20 20 20 19 19 20 20 20 20 20 22 23 24 24 23 23 24 26 26 27 27 28 28 29 30 31 31 32 33 31 29 29 29 29 29 29 29 29 29 28 27 27 26 25 25 24 23 21 19 18 15 12 9 7 8 11 15 18 21 24 26 27 29 30 32 33 34 35 36
23 23 23 23 23 22 22 22 22 21 21 21 20 20 20 20 19 19 19 19 19 20 19 19 20 21 21 21 22 22 23 23 23 22 22 23 24 24 25 25 25 26 27 29 30 31 30 29 29 28 28 27 27 27 27 27 26 25 25 25 24 24 24 24 23 23 22 21 21 20 19 17 15 12 9 7 7 9 12 15 18 21 24 26 28 30 31 33
23 23 22 22 22 22 22 22 22 21 21 21 21 21 21 21 20 20 20 19 19 20 20 20 20 20 20 21 21 21 22 22 22 22 22 22 23 23 23 23 24 25 27 28 29 29 28 27 29 28 26 26 26 26 25 25 24 23 23 22 22 22 21 21 21 21 21 20 20 19 18 18 17 16 14 13 11 9 7 6 7 9 12 14 17 20 22 25
21 21 21 21 21 21 21 21 21 21 21 21 21 21 21 21 21 21 20 19 20 21 21 21 21 20 20 21 21 21 22 22 22 22 22 23 23 23 23 24 23 24 26 27 27 27 26 27 28 26 26 26 26 25 24 23 23 22 21 21 20 20 20 20 19 19 19 18 18 17 17 16 15 15 14 13 12 11 10 8 7 6 6 6 7 8 10 12
21 20 20 20 20 20 20 20 20 20 20 20 20 21 21 20 20 20 20 20 21 21 20 21 21 20 20 21 21 22 22 22 22 22 23 24 24 24 25 24 24 25 25 24 25 24 24 25 24 23 24 25 25 25 24 24 23 22 21 20 19 19 18 18 18 17 17 16 16 15 15 14 14 13 12 12 11 10 9 9 8 7 6 5 5 5 6 6
21 21 20 20 20 20 20 20 20 20 20 20 20 20 19 19 19 19 19 20 21 20 20 20 20 20 21 20 21 21 20 20 21 23 23 24 24 24 25 25 26 26 25 24 23 22 23 23 22 21 22 23 23 24 23 24 23 23 22 21 20 19 18 17 17 16 16 15 14 14 14 13 13 12 11 11 10 10 9 9 8 8 7 7 7 6 7 7
21 21 21 20 20 21 21 21 21 21 22 22 21 20 20 19 19 19 20 19 19 20 20 20 20 21 21 21 21 21 20 21 22 22 23 23 24 24 24 25 25 25 24 25 24 24 23 22 21 21 22 21 22 21 21 22 22 22 22 21 21 20 19 18 17 16 15 15 14 14 14 14 13 13 12 12 12 11 11 10 10 10 10 10 10 10 10 11
20 20 20 20 20 21 21 21 22 22 22 22 22 22 21 21 20 20 20 19 19 20 20 20 20 21 21 21 22 22 22 22 22 22 22 22 23 23 23 24 24 24 24 24 24 24 24 23 22 22 22 21 21 20 20 20 20 20 20 20 20 20 20 20 19 19 18 17 16 14 14 16 15 15 14 14 14 14 13 13 13 13 13 13 14 14 15 15
19 19 19 20 20 20 20 21 21 21 21 22 22 22 22 22 21 21 21 20 21 21 20 20 21 21 22 22 22 22 22 22 21 21 22 22 22 21 21 22 23 23 23 23 23 24 24 23 24 23 23 22 21 20 20 20 19 19 19 19 19 20 20 20 20 20 20 20 20 17 15 16 17 16 16 16 17 17 17 17 18 18 18 19 18 19 19 19
17 18 18 19 19 19 19 20 20 21 21 21 22 22 22 22 22 22 22 21 22 21 21 21 21 21 21 21 21 22 22 22 22 22 22 21 21 20 21 21 21 21 21 22 23 24 24 24 25 25 24 23 22 22 21 20 20 20 20 20 20 20 20 20 20 20 20 20 21 21 18 17 19 19 17 18 19 20 19 20 21 22 21 22 23 23 24 24
16 17 18 18 18 19 19 20 20 20 21 21 21 22 22 22 23 22 22 22 22 21 21 21 21 21 21 21 21 21 21 21 22 22 21 21 21 21 21 21 21 21 21 22 23 23 24 24 25 25 25 25 25 24 23 23 23 23 22 22 21 21 21 21 21 21 21 20 20 21 19 18 20 23 21 21 21 22 22 23 24 24 24 25 26 27 27 27
16 17 17 18 18 19 19 20 20 20 20 20 21 21 22 22 23 22 22 22 22 22 22 22 22 22 22 22 22 22 22 22 22 21 21 22 22 22 22 21 21 22 22 22 23 23 24 24 24 25 26 26 26 27 27 27 27 27 26 25 24 24 23 23 22 22 22 22 22 21 20 18 18 24 26 25 25 25 25 26 26 27 27 27 29 30 30 30
16 17 17 18 18 19 19 20 20 20 21 21 21 21 21 22 22 22 22 22 22 22 22 22 22 22 22 23 23 24 24 24 23 23 23 23 22 22 22 22 23 23 23 23 23 24 25 25 26 27 28 28 29 29 30 30 30 30 29 29 28 27 26 26 25 24 23 23 24 23 23 21 18 21 26 27 27 28 29 29 29 29 30 30 32 32 33 33
16 17 17 18 18 19 19 19 20 21 21 21 22 22 22 22 22 22 23 22 22 22 22 22 21 22 23 23 24 25 25 25 26 26 25 24 23 23 23 23 23 23 24 24 24 24 24 25 26 27 28 28 29 30 30 30 30 31 31 31 31 30 29 28 28 28 26 25 26 26 26 26 21 22 26 27 28 29 31 32 32 32 32 33 34 35 36 36
16 16 16 17 17 18 18 19 19 20 21 21 22 23 24 24 23 23 23 23 23 23 23 23 22 23 23 24 24 25 25 25 26 26 25 25 24 24 24 24 24 24 24 25 25 25 25 25 25 26 26 27 28 28 29 29 30 31 31 32 33 33 32 31 30 31 30 28 28 28 29 28 26 26 29 29 29 30 32 34 35 35 35 36 37 38 39 40
15 15 15 16 16 17 18 18 19 20 20 21 22 23 24 24 24 24 24 24 25 25 25 25 24 24 24 25 25 25 25 25 25 26 26 26 25 24 24 24 24 24 24 25 25 25 26 26 26 26 27 27 28 28 28 29 30 30 31 32 33 33 33 33 32 32 32 31 30 30 31 30 29 30 31 31 32 34 34 36 37 38 38 39 40 41 41 42
14 15 15 15 16 17 17 18 19 20 20 21 22 22 23 24 24 24 25 25 25 26 26 26 26 26 26 26 26 25 25 25 26 26 26 26 26 25 25 24 24 24 24 24 25 26 27 28 28 28 28 28 29 29 30 30 31 32 32 33 34 35 35 34 34 34 34 33 32 32 32 31 30 31 33 34 36 37 38 38 39 39 40 41 42 43 43 44
14 14 15 15 16 16 17 18 19 20 20 21 21 22 23 23 24 24 24 24 25 25 26 26 27 27 27 27 27 26 26 26 26 26 26 25 25 25 24 24 25 25 25 25 25 26 28 29 29 29 29 30 30 30 31 32 33 34 34 34 35 35 36 36 36 36 36 35 34 34 34 33 32 33 35 37 39 40 40 41 41 41 42 43 44 45 46 46
14 14 15 15 16 17 17 18 19 20 21 21 22 22 23 23 24 24 24 24 24 25 25 26 26 26 27 28 28 28 27 27 27 27 27 26 26 26 25 25 26 26 27 27 27 27 29 30 31 32 31 31 31 32 33 33 34 34 35 36 36 36 37 37 37 38 38 38 36 36 35 34 33 34 37 39 41 42 42 43 43 44 45 46 47 48 48 49
15 15 15 16 16 17 17 18 19 20 21 21 22 22 23 23 24 24 24 24 25 25 25 26 26 27 27 28 29 29 29 29 30 30 30 29 29 28 28 28 28 28 29 29 29 29 30 31 32 32 33 33 33 34 34 35 35 35 36 37 37 37 37 38 38 39 40 40 38 36 35 33 33 35 37 39 41 42 43 44 45 47 48 49 49 50 50 51
15 15 16 16 17 17 18 18 19 20 20 21 22 23 23 24 24 25 25 25 26 26 27 27 27 28 28 29 29 30 30 31 31 32 32 33 32 32 31 30 30 30 30 30 31 30 31 32 33 33 34 34 35 35 35 36 36 36 37 37 37 37 38 39 39 40 42 42 40 37 34 31 32 33 35 38 39 40 42 44 46 48 49 50 51 52 53 53
16 16 16 17 17 18 18 19 19 20 21 21 22 23 24 24 25 26 26 26 27 28 28 29 29 29 29 30 30 31 31 31 32 32 33 34 35 35 34 33 32 32 32 32 32 32 32 32 33 34 34 35 36 36 36 36 37 37 37 38 38 38 38 39 40 41 42 44 43 40 35 30 31 33 34 36 38 39 41 44 46 48 50 52 53 53 53 53
16 16 17 17 17 18 19 19 20 20 21 22 22 23 24 25 26 27 27 28 28 29 29 30 30 30 30 30 31 31 32 32 32 32 33 34 35 36 36 35 34 34 34 34 34 34 34 34 34 34 34 35 36 37 37 37 38 38 39 39 39 40 40 41 42 42 43 44 44 43 37 31 32 36 35 36 38 40 43 44 46 49 50 52 52 52 52 53
16 16 17 17 18 19 19 20 20 21 22 22 23 24 25 26 27 28 29 29 30 31 31 31 31 31 31 31 31 32 32 32 32 33 33 34 36 37 37 36 36 36 36 36 36 36 36 36 36 36 35 36 37 38 39 39 39 39 40 40 40 41 42 42 43 43 44 44 44 45 39 32 33 38 37 38 40 43 46 47 48 49 50 50 50 51 52 53
16 17 17 18 18 19 20 20 21 22 23 23 24 25 26 27 28 28 30 31 31 32 32 33 33 33 33 33 32 32 32 32 32 33 33 35 36 37 37 37 37 37 38 38 38 37 37 37 37 37 38 38 38 40 41 42 41 41 42 42 42 43 43 44 43 42 42 43 43 46 42 32 33 41 41 41 42 44 47 49 49 50 49 50 51 51 52 53
18 18 18 19 19 20 20 21 22 23 23 24 25 26 27 27 28 29 30 32 32 33 33 35 36 36 36 36 35 34 33 33 33 34 34 35 36 37 37 38 38 39 39 39 39 39 39 39 39 39 39 39 39 40 42 44 43 43 44 44 44 45 45 46 45 42 42 42 42 47 43 33 36 44 43 43 45 45 46 47 48 49 49 50 51 52 52 52
20 20 20 20 20 21 21 22 23 24 24 25 26 27 27 28 28 29 31 32 32 33 34 36 38 39 39 38 37 35 35 35 35 35 35 36 36 37 38 39 40 40 41 40 40 41 41 41 40 40 40 41 40 41 43 45 45 45 45 45 45 46 47 48 48 46 44 43 43 47 44 38 41 45 44 45 46 45 45 46 47 48 48 49 50 51 51 52
22 22 22 21 21 22 23 23 24 25 25 26 27 28 28 28 28 29 30 31 31 33 35 37 38 39 39 39 38 37 37 36 36 35 36 36 37 38 39 40 41 42 42 42 41 41 42 42 42 41 41 41 41 42 43 45 46 45 45 46 47 47 47 48 48 48 46 44 44 46 45 42 42 44 45 46 45 44 44 45 45 46 47 48 49 50 51 52
24 24 23 23 23 24 24 25 25 26 26 27 28 29 29 28 28 29 29 30 31 33 35 37 37 38 38 38 38 37 37 37 37 37 37 38 38 39 40 41 42 44 44 44 43 42 43 44 43 42 42 42 42 43 44 45 45 46 46 48 48 48 48 46 46 47 46 44 43 44 45 43 40 41 44 44 44 45 46 46 47 47 48 49 50 51 52 52
25 25 25 25 25 25 25 26 26 27 27 28 29 30 30 29 29 29 30 30 31 33 35 36 36 36 36 36 37 37 37 38 38 38 38 39 40 40 41 42 43 44 45 46 44 43 43 44 43 43 44 45 46 46 47 47 47 47 48 49 49 48 46 45 44 45 45 44 42 41 42 41 39 40 44 44 46 48 49 49 48 48 49 50 51 52 52 53
26 26 26 27 27 27 26 27 27 28 28 29 30 31 30 30 30 30 30 31 31 33 35 35 35 35 35 36 36 37 37 38 39 39 39 40 40 41 42 43 44 45 46 47 46 44 44 44 44 43 44 46 47 48 48 48 48 47 48 49 47 46 44 42 41 42 42 42 40 39 41 41 40 44 46 47 49 50 49 49 48 48 49 50 51 52 52 53
27 27 27 28 28 28 28 28 28 28 29 29 30 31 31 30 31 31 32 32 33 33 34 34 34 34 35 35 36 37 37 37 38 39 39 40 41 41 42 43 45 46 47 48 48 47 46 45 45 44 43 45 46 47 47 47 47 47 47 46 45 43 41 38 38 39 40 41 40 41 43 43 43 47 48 48 49 50 50 50 50 50 50 50 51 51 51 52
29 28 28 28 29 29 29 29 30 30 30 30 31 31 31 30 31 32 33 34 33 33 34 34 33 33 34 35 36 36 37 37 38 39 40 41 41 42 43 44 45 47 48 50 50 49 48 46 45 45 43 44 45 45 45 45 45 44 44 44 42 40 38 36 36 38 40 42 42 43 44 44 45 46 48 48 49 50 51 51 51 51 51 51 52 51 51 52
29 29 28 29 29 29 30 31 31 31 31 31 32 31 31 31 32 32 33 34 33 33 33 34 33 33 34 35 36 36 37 37 39 40 41 41 41 42 44 45 47 48 49 50 50 50 48 46 46 45 43 43 44 43 42 42 42 42 42 41 39 37 37 37 37 38 41 42 42 43 43 44 45 47 48 49 50 51 51 50 49 50 51 52 52 52 53 54
30 30 29 29 29 29 30 31 32 32 32 32 32 33 33 33 33 33 33 33 33 33 33 34 34 33 34 36 37 37 37 39 40 41 42 42 43 44 45 47 48 49 50 51 50 50 48 46 45 44 42 41 42 42 41 40 42 42 40 38 37 37 38 38 37 38 40 41 42 42 42 43 45 47 48 50 51 51 51 49 49 50 52 53 54 55 56 56
31 31 30 30 29 29 30 31 32 32 32 32 33 33 34 35 34 34 33 33 34 34 34 34 34 34 35 37 38 39 39 40 41 42 43 43 44 46 47 48 49 49 50 50 50 48 46 44 43 42 40 40 41 42 41 41 41 40 38 37 38 38 38 38 37 38 40 40 40 41 42 44 46 48 50 51 52 52 51 49 49 52 54 55 55 56 56 57
31 31 30 30 30 29 30 30 31 32 33 33 34 35 35 36 36 35 35 35 35 35 35 34 34 34 36 39 40 40 41 41 42 43 43 44 45 47 47 48 49 48 47 48 47 45 43 41 40 41 41 42 44 46 45 42 40 39 39 39 39 39 39 39 38 38 39 40 40 42 44 46 49 50 52 52 52 52 51 49 51 54 54 54 55 56 56 56
Wind_Direction
70 63 54 45 34 25 16 6 357 348 339 331 325 322 321 322 324 329 337 347 359 7 9 8 9 11 17 17 7 1 358 351 344 330 319 319 318 316 315 314 312 306 298 287 277 270 265 262 259 256 254 252 250 249 248 247 247 246 246 246 246 246 246 245 245 244 244 242 241 240 239 239 239 240 241 242 242 242 243 241 241 243 245 247 247 248 250 251
60 52 45 39 34 30 25 20 17 12 10 9 10 14 19 27 36 44 48 52 52 49 46 41 40 41 42 32 19 22 26 21 13 359 347 344 341 339 341 341 337 329 319 307 293 281 271 264 258 254 251 249 247 245 245 245 245 245 245 245 245 245 245 244 244 243 243 242 241 240 238 238 238 238 239 240 241 242 243 242 241 241 243 244 246 247 248 249
68 65 62 61 59 58 56 54 53 52 54 55 59 62 65 68 69 70 69 67 65 62 59 56 53 50 45 37 33 38 35 26 18 14 15 13 9 7 4 360 352 345 340 335 323 300 281 270 261 255 250 245 243 242 241 241 241 242 243 243 243 243 243 243 243 243 243 242 241 240 239 238 238 238 238 239 240 241 242 243 243 242 243 245 246 247 247 247
74 72 70 69 68 67 66 65 65 66 68 69 71 73 74 75 75 74 71 70 68 65 63 61 58 54 50 47 48 49 42 35 36 37 36 32 28 23 19 17 11 5 3 1 356 340 305 280 267 259 252 245 241 239 238 237 238 240 241 242 242 243 243 243 243 243 243 243 243 242 241 240 239 239 238 238 239 240 241 243 244 244 245 246 247 247 247 247
74 73 72 72 71 71 70 70 70 72 73 75 75 76 76 76 74 72 71 72 69 65 63 62 61 58 56 52 53 53 46 42 45 44 43 42 40 40 38 35 30 27 27 24 19 15 2 324 288 267 257 248 241 238 237 237 237 238 239 241 242 243 244 244 244 244 244 244 245 245 244 243 242 241 240 240 240 240 241 242 244 245 246 247 248 248 249 249
75 75 75 74 74 73 73 73 73 74 75 76 76 76 75 75 74 73 73 73 71 68 65 63 62 60 58 53 53 54 47 44 47 46 47 47 46 47 47 44 40 39 40 40 41 43 38 27 6 326 282 256 243 237 236 236 236 238 240 242 244 245 246 247 247 247 247 247 247 247 247 247 246 245 244 243 242 242 243 243 244 245 247 247 248 249 250 249
78 78 78 77 77 76 76 76 75 76 76 76 76 76 75 76 76 75 73 70 69 67 65 62 59 58 56 53 53 53 48 47 49 48 48 49 47 47 47 46 43 43 44 44 48 50 47 44 40 33 26 347 256 241 238 236 237 238 241 243 245 247 249 250 251 251 251 252 251 250 250 249 249 249 248 247 246 245 245 245 245 246 247 248 248 249 249 249
81 80 80 79 79 79 78 78 77 76 76 76 76 76 76 76 75 72 70 67 65 63 61 59 55 52 51 50 52 51 47 47 48 48 49 48 48 47 47 46 45 45 45 45 49 50 49 48 47 47 48 44 33 269 241 239 239 240 242 244 246 247 249 250 251 252 253 254 254 254 253 252 252 251 251 250 249 248 247 247 247 247 248 248 248 248 248 248
81 81 81 81 81 80 80 80 79 78 78 77 76 76 74 72 70 68 66 64 61 59 57 55 51 48 47 47 49 47 44 45 45 45 46 46 47 46 46 46 46 46 46 46 48 50 51 50 49 51 52 49 46 41 352 251 245 245 246 247 249 250 251 252 253 254 254 255 255 255 255 255 255 254 254 253 252 251 250 249 249 249 249 249 249 249 250 250
81 81 81 80 80 80 79 79 79 78 77 76 74 72 70 68 67 65 63 61 58 56 54 52 49 47 43 43 45 43 41 42 41 40 42 43 43 43 43 44 45 46 46 46 47 49 52 52 50 51 53 53 50 47 40 23 289 253 252 251 253 254 254 255 256 257 257 258 258 258 258 257 257 257 256 256 255 255 254 253 252 251 251 251 251 251 251 252
80 79 78 77 76 75 75 74 73 72 71 70 69 68 67 65 63 61 59 57 55 52 51 49 47 43 40 41 42 39 39 39 37 37 38 39 39 39 39 40 42 43 45 45 45 47 49 50 48 48 52 53 51 51 48 44 35 346 280 264 260 259 259 259 259 260 260 260 261 261 261 261 261 261 260 260 260 259 259 258 257 256 255 254 254 254 254 254
76 75 74 74 73 72 70 69 68 67 65 64 63 62 60 58 57 56 55 54 52 50 47 45 43 40 38 39 38 35 37 36 35 35 35 37 37 37 36 36 37 38 41 43 43 45 46 48 46 44 48 50 49 51 52 52 52 45 29 341 293 274 267 264 262 262 261 262 262 263 264 264 264 264 264 264 264 263 263 262 261 260 259 258 258 257 257 256
73 72 71 71 70 69 68 67 66 64 62 61 59 57 55 54 53 53 53 53 51 49 46 43 41 39 38 37 36 36 36 35 34 33 33 34 33 34 33 33 34 34 37 38 40 43 45 47 45 42 46 47 47 51 53 55 57 55 52 46 34 7 322 292 278 270 266 265 264 264 265 265 265 266 266 266 266 265 265 265 264 264 263 262 262 261 260 259
70 69 68 67 66 65 65 64 64 63 62 61 59 57 55 53 52 51 51 51 50 47 44 43 41 38 37 36 36 38 37 35 34 33 33 32 31 31 30 28 30 31 33 35 36 39 42 46 45 41 45 47 47 49 52 55 56 56 55 53 51 46 42 33 12 332 296 282 276 270 268 267 266 266 266 266 267 267 267 266 266 265 265 264 264 263 263 262
68 68 67 66 65 64 63 62 62 61 60 59 58 57 54 51 49 47 46 46 47 45 42 41 39 38 36 34 35 36 35 35 34 33 32 32 31 30 29 26 27 27 29 32 34 35 38 44 43 39 41 45 47 47 49 51 53 54 54 54 53 52 52 51 48 42 34 19 354 317 293 281 272 268 266 265 265 265 266 266 266 266 266 265 265 264 264 264
67 66 65 64 63 62 60 59 58 57 56 55 54 54 52 48 46 43 41 41 42 41 38 36 35 34 32 30 31 30 30 31 31 30 29 30 30 30 29 27 26 26 26 28 30 30 33 38 39 36 36 39 42 45 46 48 49 50 51 52 52 52 51 51 51 50 48 47 43 37 29 15 343 305 286 276 270 267 266 265 266 266 267 267 266 266 265 265
64 63 62 60 59 58 56 55 53 52 51 51 50 49 49 46 42 39 36 34 36 35 32 30 29 29 26 24 25 24 23 25 25 24 24 25 26 27 27 25 24 25 26 26 27 27 27 30 33 31 30 31 34 38 40 43 45 46 48 48 48 48 47 46 47 47 46 46 46 45 44 42 41 35 24 1 326 298 282 275 272 270 269 268 268 267 266 266
62 61 60 58 56 55 54 52 51 48 46 46 45 44 44 43 40 37 35 32 33 34 30 28 27 26 23 22 21 19 18 19 18 16 16 19 20 21 21 20 19 20 22 22 24 26 22 23 27 24 22 25 26 29 31 35 37 39 42 42 43 43 42 41 40 39 39 38 40 41 41 42 42 42 41 39 34 25 9 342 315 298 286 280 277 274 271 270
60 59 57 56 55 53 51 49 48 46 43 42 41 40 39 38 35 33 31 29 31 31 28 28 27 25 23 22 21 20 19 17 14 12 12 15 15 14 14 14 13 16 19 18 19 21 16 19 23 18 17 19 19 20 22 25 28 29 32 33 35 35 35 35 33 32 31 29 29 30 30 33 34 35 36 37 37 36 34 29 20 9 350 329 311 298 289 283
55 54 53 52 51 49 48 46 44 43 41 39 38 36 35 34 31 29 27 26 28 25 23 25 24 23 23 23 22 22 20 16 13 14 14 14 13 12 11 9 9 13 13 12 14 12 10 17 19 13 14 15 14 15 14 15 17 18 20 21 24 25 24 25 24 23 22 20 19 18 17 18 19 21 21 22 24 24 23 21 17 14 8 356 343 329 315 307
49 49 48 47 46 45 43 42 40 38 36 35 33 31 30 29 27 25 23 23 23 20 19 20 19 19 19 20 20 20 18 15 15 16 15 14 13 12 11 9 9 9 6 7 9 7 8 13 11 9 12 11 11 11 10 9 9 9 9 10 12 13 12 14 13 11 10 9 7 6 5 4 3 1 2 1 0 1 358 355 351 346 344 336 328 320 310 303
44 43 42 41 40 39 38 37 35 33 32 31 30 28 26 25 22 21 18 18 18 15 13 14 15 15 14 15 15 14 13 12 13 14 14 13 12 12 10 8 8 5 5 6 5 4 6 7 5 7 8 6 6 7 6 6 5 3 3 2 2 2 1 1 0 359 358 356 355 354 350 349 348 344 344 343 338 338 336 331 327 321 318 315 309 305 301 297
36 36 36 35 33 32 31 30 30 29 27 27 26 25 24 22 20 19 16 14 13 11 8 8 10 10 10 10 10 9 9 10 9 8 9 9 9 9 6 6 6 5 6 5 2 2 1 0 2 4 3 1 0 360 359 358 358 358 357 357 356 355 354 352 351 350 348 346 345 346 342 337 336 334 334 332 326 322 320 316 312 309 306 303 300 297 295 292
28 28 28 27 26 25 24 23 23 22 21 20 20 20 20 19 18 16 15 14 12 9 8 7 7 6 6 7 6 4 6 6 5 4 5 5 5 3 2 3 3 3 3 1 1 1 359 359 360 359 358 357 355 355 353 350 350 350 349 350 350 350 349 347 346 344 342 339 337 340 341 330 326 329 329 325 320 315 311 308 306 305 303 301 299 296 295 293
20 20 20 19 19 18 18 16 16 16 14 13 14 14 14 14 13 12 11 11 10 8 8 7 6 5 5 5 4 4 4 3 2 1 1 0 359 358 359 360 359 358 358 358 359 358 357 358 358 356 355 353 352 352 349 346 346 346 345 344 343 342 341 341 340 338 337 334 331 334 337 331 324 325 324 318 314 312 308 304 301 302 301 299 297 295 294 293
11 11 11 11 11 10 10 9 9 9 8 7 8 8 9 9 9 9 7 7 8 6 6 7 6 5 5 6 5 5 3 2 1 359 358 357 357 357 357 357 356 354 354 355 355 354 354 354 352 352 350 349 349 348 346 346 346 345 343 341 339 337 335 334 333 332 331 328 326 327 330 332 325 320 319 314 310 309 306 301 298 298 297 295 294 293 292 290
4 4 4 3 4 3 2 2 2 2 1 1 2 3 4 4 4 4 3 3 4 3 3 5 5 5 6 6 6 4 3 2 360 357 356 357 357 356 354 354 355 355 354 353 351 350 350 348 346 345 344 345 344 344 345 345 344 343 341 339 337 335 333 330 328 327 326 324 321 320 321 326 323 315 312 310 308 305 301 298 297 296 295 293 291 290 289 287
357 358 358 358 359 359 358 358 357 357 356 356 356 357 358 358 359 359 358 359 360 0 1 2 1 2 2 2 2 2 2 0 358 356 356 355 354 352 353 354 354 354 353 352 350 350 348 346 344 343 342 342 342 342 342 340 339 338 336 335 334 333 331 328 326 324 324 321 317 317 316 317 319 309 304 304 304 302 299 297 295 294 293 292 290 289 288 287
353 354 355 355 355 355 355 355 355 354 353 352 352 352 352 353 354 354 354 354 355 357 358 358 357 357 357 357 356 356 357 357 357 356 354 352 351 350 351 352 352 351 351 351 350 349 347 344 344 343 342 342 341 340 338 336 334 332 331 331 329 329 328 327 326 323 324 322 318 317 315 315 318 308 300 301 300 298 297 295 293 292 291 290 289 289 288 288
348 349 350 350 350 351 352 352 352 352 351 351 350 350 349 349 350 350 350 350 351 353 354 354 354 354 354 354 353 352 353 353 354 355 354 352 350 349 349 349 349 349 349 348 347 345 344 343 342 341 341 341 340 338 337 335 333 330 329 328 326 325 325 325 325 322 322 321 319 318 316 316 317 310 303 302 299 296 294 293 292 292 291 290 290 289 288 287
342 343 344 344 345 347 348 348 348 349 349 349 348 348 347 347 348 348 348 348 348 349 350 350 351 351 351 351 351 351 351 351 352 353 354 353 351 348 347 347 348 348 347 345 343 342 341 340 340 340 340 341 340 338 336 334 333 331 328 326 324 323 323 323 322 320 320 319 318 317 315 315 315 310 306 305 301 297 295 293 293 293 293 292 291 289 288 287
336 337 338 340 341 343 343 343 345 345 346 346 346 346 345 345 346 347 347 348 347 347 348 348 348 348 348 348 349 349 349 350 350 351 352 352 351 348 347 345 345 345 345 343 342 340 339 338 338 339 339 340 339 337 336 335 333 331 329 327 325 323 322 321 320 318 317 317 317 316 313 313 312 308 306 304 301 299 298 296 296 296 295 293 291 290 289 288
329 332 333 335 337 338 339 340 341 342 342 343 344 344 343 342 344 345 346 346 346 346 346 345 346 346 345 345 345 345 346 347 347 348 349 350 350 348 347 345 344 344 343 343 342 340 338 337 337 338 338 339 338 336 336 335 334 332 330 327 325 323 322 321 320 319 318 317 317 317 315 315 312 307 303 301 299 299 299 299 299 298 296 294 293 292 291 290
323 325 327 329 332 333 335 336 338 339 339 340 340 340 339 339 340 341 342 342 343 343 343 343 343 343 342 342 342 342 342 343 344 344 345 346 348 348 348 347 345 344 343 342 342 340 338 337 337 337 338 338 338 337 336 336 335 333 331 328 326 325 323 323 322 320 319 318 319 318 317 317 314 308 302 298 297 298 299 300 301 299 298 296 295 294 293 292
317 320 322 324 326 328 331 332 334 335 336 336 336 336 336 336 336 337 338 338 339 340 340 340 340 339 339 338 339 341 341 340 341 342 342 342 343 344 345 346 346 344 342 341 341 341 339 337 336 336 337 337 337 337 336 335 335 333 331 329 328 326 324 323 323 321 320 319 320 320 321 321 315 307 300 296 295 296 298 299 298 298 297 296 296 295 295 294
312 315 317 319 321 324 326 328 330 331 332 332 332 332 333 333 333 334 335 335 336 336 337 337 337 337 336 336 336 338 339 339 339 339 340 340 340 339 339 341 342 342 341 340 340 339 338 336 335 336 337 336 336 335 335 335 334 334 332 330 328 326 325 323 323 323 320 320 322 322 325 325 315 305 299 297 296 296 295 295 295 295 296 296 296 297 297 298
308 310 313 315 317 319 321 324 325 326 327 329 329 330 330 330 331 331 331 332 333 333 334 334 335 335 335 335 334 335 336 336 335 335 336 337 338 337 335 335 336 338 339 338 338 337 337 336 335 336 336 335 335 334 334 335 334 333 331 329 328 326 325 323 323 323 321 321 322 323 328 328 314 305 301 299 297 294 293 292 293 294 295 296 298 300 301 301
303 306 308 311 313 315 317 319 320 322 324 325 326 327 328 328 329 328 329 330 330 330 331 332 333 333 333 333 333 333 333 334 333 333 333 334 335 335 334 333 333 335 336 336 336 335 335 335 333 334 334 334 334 333 333 335 334 332 331 329 328 326 325 324 323 323 323 322 322 321 327 331 317 307 303 301 299 297 295 294 294 296 298 300 302 303 302 300
298 301 303 306 308 311 313 315 316 318 320 322 323 324 325 326 327 327 327 327 328 328 329 330 331 331 331 331 331 331 331 332 333 332 331 332 332 333 333 332 332 334 334 334 334 333 333 332 332 332 333 334 334 333 333 334 333 332 330 329 328 325 325 324 324 324 323 323 322 319 324 333 319 306 304 305 304 302 301 301 302 303 304 304 304 303 301 300
293 296 298 301 304 306 309 311 312 315 317 318 320 322 323 325 325 326 327 327 327 328 329 330 331 330 330 329 328 329 330 331 331 331 330 330 330 331 331 331 331 332 333 333 332 332 331 330 330 331 331 332 333 333 332 332 332 331 329 328 327 325 325 324 324 325 322 322 320 316 322 333 317 306 309 310 308 307 307 308 308 308 308 307 306 305 304 304
291 293 295 298 300 302 304 306 309 311 313 314 317 319 321 323 324 325 326 326 327 328 329 330 331 330 329 328 328 329 329 329 329 329 329 329 329 329 329 329 330 331 331 331 332 331 330 329 329 329 329 330 331 331 331 330 330 329 327 326 326 326 326 324 324 323 321 321 318 314 320 327 313 308 312 312 310 311 311 311 311 310 310 309 308 307 307 306
289 291 293 295 297 299 301 303 305 308 309 311 314 316 318 320 321 323 324 325 326 327 329 330 331 331 330 329 329 329 329 328 329 329 329 329 329 328 329 329 329 330 330 331 332 331 330 329 329 328 327 327 329 329 330 329 328 327 326 325 325 326 326 324 323 322 321 321 317 315 319 321 314 313 314 313 314 315 314 312 312 312 311 309 309 308 307 307
288 289 291 293 295 297 299 301 303 305 306 308 310 312 314 316 317 320 322 323 324 326 327 328 330 331 332 332 331 331 330 329 330 331 332 331 331 330 331 331 331 330 330 330 331 331 329 328 328 327 325 325 326 327 328 327 326 325 325 323 324 324 324 323 321 321 321 320 318 318 319 319 318 317 316 316 318 317 315 315 315 314 313 312 311 311 309 308
286 288 290 292 294 295 297 300 301 303 304 306 307 308 310 312 314 317 319 321 322 323 325 327 329 331 333 333 333 333 333 332 333 335 335 334 333 333 332 332 331 330 329 330 331 331 329 327 327 327 325 323 323 324 325 326 325 325 324 322 323 324 323 323 321 320 320 320 321 321 320 322 324 321 319 321 321 319 319 319 318 317 316 314 313 311 310 309
285 287 289 291 293 295 297 299 300 302 303 304 304 305 307 310 312 314 316 318 320 322 323 325 328 331 332 332 333 334 334 334 335 336 336 335 334 333 332 332 331 329 328 328 330 331 329 327 327 327 325 323 323 324 326 326 326 326 324 322 323 324 324 325 323 322 320 321 324 324 323 327 328 322 321 323 321 321 321 320 319 317 316 314 313 312 311 310
284 286 288 290 292 294 296 298 299 300 301 302 303 304 307 309 310 313 315 317 319 321 322 324 327 330 330 330 331 332 333 334 334 335 334 333 332 331 331 330 330 329 328 327 328 329 328 327 326 326 325 323 323 324 325 325 326 326 324 323 325 326 327 327 325 323 322 325 328 326 325 329 326 321 322 322 321 321 321 320 319 317 315 314 313 312 312 311
283 285 288 290 292 294 296 297 297 298 299 299 301 303 306 308 310 312 314 316 319 321 321 323 327 328 327 328 329 330 330 331 332 333 332 331 330 329 329 329 329 328 327 325 325 325 325 325 325 325 324 322 322 323 324 325 326 326 324 325 327 328 329 330 328 325 325 327 328 326 326 327 324 321 322 322 321 322 321 319 318 317 315 314 313 313 312 312
283 285 287 289 291 294 295 295 296 296 297 298 300 303 305 307 309 312 314 316 319 320 321 323 325 325 324 325 326 326 327 329 330 331 330 328 328 327 328 328 327 327 325 323 322 322 322 322 323 323 324 323 322 323 325 326 327 326 326 327 328 329 330 331 329 326 325 327 327 326 326 326 323 323 323 322 321 321 319 318 318 317 315 313 313 314 314 314
283 284 286 288 290 292 293 295 296 296 297 299 301 303 305 306 309 312 314 316 318 320 322 323 323 322 321 322 322 323 325 328 329 329 328 327 326 326 326 326 325 325 323 321 320 319 319 321 322 322 323 324 322 324 328 329 327 326 327 327 328 329 330 330 328 325 324 325 326 327 327 326 324 324 323 320 319 318 318 318 319 317 315 315 316 317 316 316
283 285 286 287 288 290 292 294 295 297 298 300 301 303 304 305 308 310 313 316 318 320 321 321 320 319 318 319 320 321 324 327 328 327 326 326 326 326 325 325 324 323 321 320 318 318 320 322 322 322 324 326 325 327 331 331 327 325 326 326 326 327 327 327 327 325 324 326 327 327 328 325 323 322 321 318 318 318 320 321 321 319 318 318 319 319 318 318
285 286 287 288 289 290 291 293 295 296 298 299 300 301 303 304 307 309 312 315 317 319 319 318 318 317 316 317 317 319 322 324 325 326 325 325 325 325 325 324 323 322 321 320 318 319 322 324 323 323 326 328 326 327 330 331 327 324 324 325 324 325 326 327 328 326 325 326 327 326 325 324 322 321 320 320 320 322 324 324 322 320 320 320 320 320 320 319
284 285 286 287 288 290 291 292 294 295 296 297 298 299 301 303 305 308 311 314 315 316 316 316 316 315 314 315 315 317 319 321 323 324 325 325 324 324 324 323 322 322 322 320 319 322 324 326 325 325 327 327 326 325 328 331 326 321 322 323 323 325 327 328 328 325 324 326 327 326 324 323 322 321 321 322 324 325 326 325 322 320 321 322 321 321 321 321
Height
5814 5814 5814 5814 5814 5814 5814 5813 5813 5813 5812 5812 5812 5812 5811 5811 5811 5811 5810 5810 5810 5810 5809 5809 5808 5808 5807 5806 5805 5803 5801 5798 5795 5792 5790 5789 5787 5786 5784 5783 5781 5778 5776 5775 5775 5775 5775 5775 5776 5777 5778 5780 5781 5781 5782 5783 5784 5785 5785 5786 5788 5790 5792 5793 5794 5795 5796 5797 5798 5799 5800 5801 5802 5802 5803 5804 5804 5805 5805 5807 5807 5807 5807 5808 5808 5809 5809 5809
5815 5815 5815 5815 5815 5814 5814 5813 5813 5812 5812 5812 5811 5811 5811 5811 5811 5811 5811 5811 5811 5810 5810 5810 5810 5809 5808 5807 5806 5804 5800 5797 5794 5792 5790 5787 5786 5784 5782 5781 5779 5776 5773 5771 5770 5770 5770 5770 5770 5771 5772 5774 5775 5776 5777 5778 5779 5780 5781 5783 5784 5785 5787 5789 5790 5791 5792 5793 5794 5795 5795 5796 5797 5798 5799 5799 5800 5800 5801 5802 5803 5803 5803 5804 5805 5805 5806 5807
5816 5816 5816 5815 5815 5815 5815 5814 5813 5813 5812 5812 5812 5811 5812 5812 5812 5812 5812 5812 5812 5812 5811 5811 5811 5810 5809 5808 5808 5805 5800 5798 5797 5794 5790 5787 5785 5784 5782 5781 5779 5775 5772 5769 5767 5766 5765 5765 5766 5766 5767 5768 5769 5771 5772 5773 5775 5776 5777 5778 5779 5781 5783 5784 5786 5787 5788 5789 5790 5790 5791 5792 5793 5794 5795 5795 5796 5797 5797 5797 5798 5799 5800 5800 5801 5802 5803 5804
5817 5817 5817 5817 5817 5816 5816 5816 5815 5815 5814 5814 5813 5813 5813 5814 5814 5814 5814 5814 5814 5813 5813 5813 5812 5812 5811 5811 5810 5804 5803 5804 5800 5794 5791 5789 5787 5785 5784 5782 5779 5775 5771 5768 5765 5764 5762 5762 5762 5763 5763 5764 5765 5766 5768 5769 5771 5772 5773 5774 5776 5778 5779 5781 5782 5783 5784 5785 5786 5787 5788 5789 5789 5790 5791 5792 5793 5793 5793 5794 5794 5795 5796 5797 5798 5799 5800 5802
5820 5820 5819 5819 5819 5819 5818 5818 5817 5817 5816 5816 5816 5816 5816 5816 5817 5817 5817 5816 5816 5815 5815 5815 5814 5814 5813 5814 5811 5804 5806 5807 5800 5796 5794 5792 5789 5787 5785 5783 5780 5776 5772 5768 5765 5763 5761 5760 5760 5760 5760 5761 5762 5763 5765 5766 5768 5769 5770 5772 5773 5775 5776 5778 5779 5780 5781 5782 5783 5784 5785 5786 5786 5787 5788 5789 5789 5790 5790 5791 5791 5792 5793 5794 5795 5796 5797 5799
5822 5822 5822 5822 5822 5822 5821 5821 5821 5820 5820 5820 5819 5819 5819 5819 5819 5819 5820 5819 5818 5817 5817 5817 5817 5817 5816 5816 5811 5804 5808 5807 5801 5800 5798 5794 5791 5788 5786 5783 5780 5777 5772 5769 5766 5763 5761 5760 5759 5758 5758 5759 5759 5760 5762 5763 5765 5767 5768 5770 5772 5773 5774 5776 5777 5778 5779 5779 5780 5781 5783 5783 5784 5784 5785 5786 5786 5787 5788 5788 5789 5789 5789 5790 5792 5793 5793 5795
5826 5826 5825 5825 5825 5825 5825 5824 5824 5824 5824 5823 5823 5823 5823 5823 5822 5822 5822 5821 5821 5820 5819 5819 5819 5819 5817 5816 5811 5807 5810 5809 5805 5804 5800 5796 5793 5790 5787 5784 5781 5777 5774 5772 5768 5764 5762 5760 5759 5758 5757 5758 5758 5759 5760 5762 5763 5765 5767 5769 5770 5772 5772 5774 5775 5775 5776 5777 5778 5779 5780 5780 5781 5781 5782 5783 5783 5784 5785 5785 5786 5786 5787 5787 5789 5789 5790 5791
5829 5829 5829 5829 5829 5829 5829 5828 5828 5827 5827 5827 5827 5826 5826 5826 5825 5825 5824 5824 5823 5822 5822 5821 5821 5820 5818 5818 5812 5809 5812 5811 5807 5805 5801 5798 5795 5793 5789 5786 5784 5780 5777 5775 5770 5766 5764 5762 5760 5759 5758 5758 5758 5759 5760 5761 5762 5764 5765 5767 5768 5770 5770 5772 5772 5773 5774 5774 5775 5776 5776 5777 5778 5778 5779 5779 5780 5781 5781 5782 5782 5783 5783 5784 5784 5785 5785 5786
5833 5833 5833 5833 5833 5832 5832 5832 5831 5831 5831 5830 5830 5830 5829 5829 5828 5827 5827 5826 5825 5824 5824 5823 5822 5821 5821 5820 5813 5811 5814 5812 5809 5807 5803 5800 5797 5795 5792 5789 5788 5784 5781 5777 5773 5770 5767 5764 5763 5761 5759 5759 5759 5759 5760 5761 5762 5763 5764 5766 5767 5768 5769 5770 5770 5771 5772 5772 5772 5773 5773 5774 5774 5775 5775 5776 5776 5777 5778 5778 5779 5779 5780 5780 5780 5781 5781 5781
5837 5837 5836 5836 5836 5836 5836 5835 5835 5834 5834 5833 5833 5832 5832 5831 5831 5830 5829 5828 5827 5827 5826 5825 5825 5823 5823 5820 5814 5815 5816 5812 5810 5808 5805 5802 5799 5797 5795 5793 5790 5787 5784 5781 5778 5775 5770 5768 5766 5764 5762 5761 5761 5760 5761 5761 5762 5763 5764 5765 5765 5766 5767 5768 5768 5769 5769 5769 5770 5770 5770 5771 5771 5771 5772 5772 5773 5773 5774 5775 5775 5776 5776 5776 5776 5777 5777 5777
5840 5840 5840 5839 5839 5839 5838 5838 5837 5837 5837 5836 5836 5835 5834 5834 5833 5832 5831 5830 5829 5829 5828 5827 5826 5825 5823 5819 5817 5818 5816 5813 5811 5809 5807 5804 5800 5799 5797 5796 5793 5790 5787 5784 5782 5778 5773 5770 5768 5769 5766 5763 5763 5762 5762 5762 5762 5763 5764 5764 5765 5765 5766 5766 5766 5766 5767 5767 5767 5767 5767 5767 5768 5768 5768 5769 5769 5770 5771 5771 5772 5772 5772 5773 5773 5773 5773 5773
5843 5843 5842 5842 5842 5841 5841 5840 5840 5839 5839 5838 5838 5837 5836 5835 5835 5834 5833 5832 5831 5830 5829 5828 5827 5825 5824 5821 5819 5819 5816 5814 5813 5811 5808 5805 5803 5801 5799 5798 5795 5793 5790 5787 5785 5781 5778 5773 5771 5772 5768 5766 5767 5765 5764 5764 5764 5764 5764 5764 5764 5765 5764 5765 5764 5764 5764 5764 5764 5764 5764 5764 5764 5765 5765 5766 5766 5766 5767 5767 5768 5768 5768 5768 5768 5769 5769 5769
5846 5846 5845 5845 5844 5844 5843 5843 5842 5842 5841 5840 5840 5839 5838 5838 5837 5836 5835 5834 5833 5832 5831 5829 5828 5827 5825 5822 5822 5820 5817 5816 5814 5812 5810 5806 5805 5803 5801 5800 5797 5796 5793 5791 5789 5786 5783 5777 5775 5776 5773 5772 5772 5769 5768 5767 5766 5766 5765 5765 5765 5764 5764 5764 5763 5763 5762 5762 5762 5762 5761 5761 5761 5761 5762 5762 5762 5762 5762 5763 5763 5763 5764 5764 5764 5764 5764 5764
5849 5848 5848 5847 5847 5846 5845 5845 5844 5844 5843 5843 5842 5841 5841 5840 5839 5838 5837 5836 5834 5833 5832 5830 5829 5828 5825 5824 5823 5821 5819 5818 5816 5813 5810 5809 5807 5805 5803 5802 5799 5798 5795 5794 5792 5789 5786 5781 5780 5781 5779 5778 5776 5774 5773 5770 5769 5768 5767 5766 5766 5765 5764 5763 5763 5762 5761 5761 5760 5760 5759 5758 5759 5758 5758 5758 5759 5759 5759 5759 5759 5759 5759 5759 5759 5759 5759 5759
5851 5850 5850 5849 5849 5848 5848 5847 5846 5846 5845 5844 5843 5843 5842 5841 5841 5840 5838 5837 5836 5834 5833 5832 5830 5829 5827 5826 5825 5822 5821 5819 5816 5814 5812 5811 5809 5807 5805 5803 5801 5799 5797 5796 5794 5792 5789 5785 5785 5786 5784 5782 5780 5778 5776 5774 5772 5771 5769 5769 5768 5767 5766 5765 5764 5762 5761 5760 5759 5758 5757 5756 5756 5755 5755 5755 5755 5755 5755 5755 5755 5755 5755 5755 5755 5755 5755 5755
5853 5852 5852 5851 5851 5850 5849 5849 5848 5847 5847 5846 5845 5844 5843 5843 5842 5841 5840 5839 5837 5836 5835 5833 5832 5830 5828 5827 5825 5823 5821 5819 5817 5816 5814 5812 5810 5808 5807 5805 5804 5802 5800 5798 5795 5794 5791 5788 5788 5788 5787 5785 5783 5781 5779 5777 5775 5774 5773 5772 5771 5770 5768 5767 5766 5764 5763 5761 5760 5759 5757 5756 5755 5754 5753 5753 5752 5752 5752 5751 5751 5751 5751 5751 5751 5751 5750 5750
5855 5854 5853 5853 5852 5851 5851 5850 5849 5849 5848 5847 5846 5845 5844 5843 5843 5842 5841 5840 5838 5837 5835 5834 5832 5831 5829 5828 5825 5823 5822 5820 5819 5817 5816 5814 5812 5810 5808 5807 5805 5803 5801 5799 5797 5795 5792 5791 5791 5790 5788 5787 5785 5783 5782 5780 5778 5777 5776 5774 5773 5772 5770 5769 5767 5766 5765 5763 5761 5760 5758 5757 5755 5754 5753 5752 5751 5750 5750 5749 5749 5748 5748 5748 5747 5747 5746 5746
5857 5856 5855 5855 5854 5853 5852 5851 5851 5850 5849 5848 5847 5846 5845 5844 5843 5842 5842 5841 5839 5838 5836 5835 5833 5832 5830 5828 5827 5825 5823 5821 5820 5818 5817 5815 5813 5811 5809 5808 5806 5804 5802 5800 5798 5796 5795 5794 5792 5791 5790 5788 5787 5785 5784 5782 5780 5779 5778 5776 5775 5773 5772 5771 5769 5768 5766 5765 5763 5761 5760 5758 5757 5755 5754 5752 5751 5750 5749 5748 5748 5747 5746 5745 5745 5744 5743 5743
5859 5858 5857 5856 5855 5855 5854 5853 5852 5851 5850 5849 5848 5847 5846 5845 5844 5843 5842 5842 5840 5838 5837 5836 5834 5833 5831 5830 5828 5826 5824 5823 5821 5820 5818 5816 5814 5812 5810 5809 5807 5805 5802 5800 5798 5797 5797 5795 5792 5792 5791 5789 5788 5786 5785 5784 5782 5781 5779 5778 5776 5775 5773 5772 5771 5769 5768 5766 5765 5763 5762 5760 5758 5757 5755 5754 5752 5751 5749 5748 5747 5746 5745 5744 5743 5742 5741 5740
5860 5860 5859 5858 5857 5856 5855 5854 5853 5852 5851 5850 5849 5848 5847 5845 5845 5844 5843 5842 5840 5839 5838 5836 5835 5834 5832 5830 5829 5827 5825 5824 5822 5820 5818 5816 5814 5813 5811 5809 5808 5805 5804 5802 5800 5799 5798 5795 5794 5794 5792 5790 5789 5787 5786 5785 5783 5781 5780 5779 5777 5776 5775 5773 5772 5770 5769 5768 5766 5765 5763 5761 5760 5758 5756 5755 5753 5752 5750 5749 5747 5746 5745 5744 5742 5741 5740 5739
5862 5861 5860 5859 5858 5857 5856 5855 5854 5853 5852 5851 5850 5849 5848 5846 5845 5844 5843 5841 5840 5839 5838 5836 5835 5834 5832 5831 5829 5827 5826 5825 5823 5821 5819 5817 5815 5813 5811 5810 5807 5806 5805 5804 5802 5801 5799 5796 5796 5794 5792 5791 5789 5788 5786 5785 5783 5782 5780 5779 5778 5776 5775 5774 5773 5771 5770 5769 5767 5766 5764 5762 5761 5759 5757 5756 5754 5752 5751 5749 5748 5746 5745 5743 5742 5741 5739 5738
5863 5862 5861 5860 5859 5858 5857 5856 5855 5854 5853 5852 5851 5850 5848 5847 5846 5844 5843 5842 5840 5839 5837 5836 5835 5833 5832 5830 5829 5827 5826 5824 5822 5820 5819 5817 5815 5814 5812 5810 5808 5807 5805 5803 5802 5801 5799 5797 5796 5794 5792 5791 5789 5788 5786 5785 5783 5782 5781 5779 5778 5777 5775 5774 5773 5772 5770 5769 5768 5766 5764 5763 5761 5760 5758 5756 5755 5753 5751 5749 5748 5746 5745 5743 5742 5740 5739 5737
5864 5863 5862 5861 5860 5859 5858 5857 5856 5855 5854 5853 5852 5850 5849 5848 5846 5845 5843 5842 5840 5839 5837 5836 5834 5833 5831 5829 5828 5826 5825 5823 5821 5820 5819 5817 5815 5814 5812 5811 5809 5807 5805 5804 5802 5800 5799 5797 5796 5794 5793 5791 5789 5788 5786 5785 5783 5782 5780 5779 5778 5776 5775 5774 5772 5771 5770 5768 5767 5766 5764 5762 5761 5760 5758 5756 5755 5753 5752 5750 5748 5746 5745 5743 5742 5740 5738 5737
5865 5864 5863 5862 5861 5860 5859 5858 5857 5856 5855 5853 5852 5851 5849 5848 5847 5845 5844 5842 5840 5839 5837 5835 5834 5832 5830 5829 5827 5826 5824 5823 5821 5820 5818 5816 5815 5814 5812 5811 5809 5807 5806 5804 5802 5800 5799 5797 5795 5793 5792 5791 5789 5788 5786 5784 5783 5781 5780 5778 5777 5775 5774 5773 5771 5770 5769 5767 5766 5765 5764 5762 5760 5759 5757 5755 5754 5752 5751 5749 5747 5746 5744 5742 5741 5739 5737 5736
5865 5865 5864 5863 5862 5861 5860 5859 5858 5856 5855 5854 5853 5851 5850 5848 5847 5845 5844 5842 5840 5839 5837 5835 5834 5832 5830 5829 5827 5825 5824 5822 5821 5819 5817 5816 5815 5813 5812 5810 5809 5807 5806 5804 5802 5800 5798 5796 5794 5792 5791 5790 5788 5787 5785 5784 5782 5781 5779 5777 5776 5774 5773 5771 5770 5769 5767 5766 5764 5763 5763 5760 5758 5757 5756 5754 5752 5751 5749 5748 5746 5744 5743 5741 5739 5737 5735 5734
5866 5865 5864 5863 5862 5861 5860 5859 5858 5857 5856 5854 5853 5852 5850 5849 5847 5846 5844 5843 5841 5839 5838 5836 5834 5832 5831 5829 5827 5825 5824 5822 5820 5819 5817 5816 5814 5812 5810 5809 5808 5806 5805 5803 5801 5799 5798 5796 5794 5792 5790 5789 5787 5786 5784 5783 5781 5779 5778 5776 5774 5773 5772 5770 5769 5767 5765 5764 5762 5761 5760 5759 5756 5753 5753 5752 5750 5749 5747 5745 5743 5741 5740 5738 5735 5734 5732 5730
5866 5865 5865 5864 5863 5862 5861 5859 5858 5857 5856 5855 5853 5852 5850 5849 5847 5846 5844 5843 5841 5839 5838 5836 5834 5832 5830 5829 5827 5825 5824 5822 5820 5818 5817 5815 5813 5811 5810 5808 5807 5805 5803 5802 5800 5798 5796 5794 5793 5791 5789 5787 5786 5784 5782 5780 5778 5777 5775 5774 5772 5771 5769 5768 5767 5765 5764 5762 5760 5758 5758 5757 5755 5750 5748 5747 5746 5745 5743 5742 5740 5738 5736 5734 5732 5730 5728 5726
5866 5865 5865 5864 5863 5862 5861 5860 5858 5857 5856 5855 5853 5852 5851 5849 5848 5846 5845 5843 5841 5840 5837 5836 5834 5832 5830 5828 5827 5825 5823 5821 5820 5818 5816 5814 5812 5811 5809 5807 5805 5804 5802 5800 5799 5797 5795 5793 5791 5789 5787 5785 5783 5781 5779 5778 5776 5774 5773 5771 5770 5769 5767 5766 5764 5763 5762 5760 5758 5756 5755 5754 5754 5750 5745 5744 5742 5740 5738 5737 5735 5734 5732 5730 5728 5725 5723 5721
5866 5865 5864 5863 5862 5861 5860 5859 5858 5857 5856 5854 5853 5852 5850 5849 5848 5846 5845 5843 5841 5840 5838 5836 5834 5832 5830 5828 5826 5825 5823 5821 5819 5817 5815 5814 5812 5810 5808 5806 5805 5803 5801 5799 5798 5796 5794 5792 5790 5788 5786 5784 5782 5780 5779 5777 5775 5773 5771 5769 5767 5766 5765 5763 5762 5760 5760 5758 5756 5754 5752 5750 5750 5748 5743 5741 5739 5736 5734 5732 5730 5729 5727 5725 5723 5721 5718 5716
5865 5864 5863 5862 5861 5860 5859 5858 5857 5856 5855 5854 5852 5851 5850 5849 5848 5846 5845 5843 5841 5839 5838 5836 5834 5832 5830 5828 5826 5824 5822 5821 5819 5817 5815 5813 5811 5809 5807 5806 5804 5802 5800 5799 5797 5795 5793 5791 5789 5787 5785 5784 5782 5780 5778 5776 5774 5772 5769 5767 5765 5763 5762 5760 5759 5757 5756 5755 5753 5752 5750 5748 5746 5744 5740 5738 5736 5733 5730 5727 5725 5723 5722 5720 5718 5716 5713 5711
5864 5863 5862 5861 5860 5859 5858 5857 5856 5855 5854 5853 5851 5850 5849 5848 5847 5845 5844 5842 5841 5839 5838 5836 5834 5832 5830 5828 5826 5824 5822 5820 5818 5816 5814 5812 5810 5808 5806 5805 5803 5802 5800 5798 5796 5794 5792 5789 5788 5786 5784 5783 5781 5778 5777 5774 5772 5770 5768 5766 5763 5761 5759 5758 5756 5754 5753 5752 5751 5749 5747 5745 5743 5740 5737 5734 5731 5728 5726 5723 5721 5719 5717 5715 5713 5710 5708 5706
5863 5862 5862 5861 5859 5858 5857 5856 5855 5854 5853 5852 5850 5849 5848 5846 5845 5844 5843 5842 5840 5839 5837 5836 5834 5832 5830 5828 5826 5824 5822 5820 5817 5815 5813 5811 5809 5807 5806 5804 5802 5801 5800 5797 5795 5793 5790 5788 5786 5784 5783 5781 5779 5777 5775 5772 5770 5768 5765 5763 5760 5758 5756 5755 5753 5752 5750 5748 5747 5746 5743 5742 5740 5737 5733 5730 5726 5723 5721 5718 5717 5715 5713 5710 5707 5705 5703 5700
5862 5862 5861 5860 5859 5858 5857 5855 5854 5853 5852 5851 5849 5848 5847 5845 5844 5842 5841 5840 5839 5838 5836 5835 5833 5831 5829 5827 5825 5823 5821 5819 5817 5815 5813 5811 5809 5807 5805 5804 5802 5800 5798 5797 5795 5792 5789 5787 5785 5783 5781 5780 5778 5775 5773 5771 5768 5765 5762 5760 5757 5755 5753 5751 5749 5748 5746 5745 5744 5742 5740 5738 5736 5733 5729 5724 5721 5718 5715 5713 5712 5710 5707 5704 5701 5699 5697 5695
5862 5861 5860 5859 5858 5857 5856 5855 5853 5852 5851 5850 5848 5847 5846 5844 5842 5841 5839 5838 5837 5836 5834 5833 5831 5830 5828 5826 5824 5823 5821 5819 5817 5815 5813 5811 5808 5806 5805 5803 5801 5799 5797 5795 5793 5791 5788 5785 5783 5781 5779 5778 5776 5774 5771 5769 5766 5763 5760 5757 5755 5752 5749 5747 5745 5743 5741 5740 5739 5738 5736 5734 5731 5728 5723 5718 5715 5713 5710 5708 5706 5703 5701 5698 5695 5693 5691 5688
5861 5860 5859 5858 5857 5856 5855 5854 5853 5852 5850 5849 5847 5846 5845 5843 5841 5840 5838 5836 5835 5834 5832 5831 5830 5828 5827 5825 5823 5822 5820 5818 5817 5814 5812 5810 5808 5805 5803 5801 5799 5797 5796 5794 5792 5790 5787 5784 5782 5779 5777 5775 5774 5772 5769 5767 5764 5762 5758 5755 5752 5750 5747 5744 5742 5739 5736 5735 5735 5735 5733 5731 5727 5722 5717 5713 5711 5709 5706 5704 5700 5697 5694 5692 5689 5687 5685 5682
5860 5859 5858 5857 5856 5855 5854 5853 5852 5851 5849 5848 5847 5845 5843 5842 5840 5839 5837 5835 5833 5832 5831 5829 5828 5827 5825 5824 5822 5821 5819 5817 5816 5814 5811 5809 5807 5805 5802 5801 5799 5797 5795 5792 5790 5788 5786 5783 5780 5778 5776 5773 5771 5769 5767 5764 5762 5759 5756 5753 5750 5747 5744 5741 5739 5737 5733 5730 5730 5730 5730 5728 5722 5717 5713 5709 5707 5706 5702 5699 5695 5692 5689 5686 5684 5681 5679 5677
5858 5857 5857 5856 5855 5854 5853 5852 5851 5849 5848 5847 5846 5844 5843 5841 5839 5838 5836 5834 5832 5831 5829 5828 5827 5825 5824 5822 5821 5819 5817 5816 5814 5812 5810 5808 5805 5803 5801 5799 5797 5795 5793 5791 5789 5787 5784 5781 5778 5776 5774 5771 5769 5766 5764 5762 5759 5757 5754 5750 5747 5745 5742 5739 5736 5734 5730 5727 5725 5725 5726 5724 5717 5711 5709 5706 5703 5701 5697 5694 5690 5687 5684 5681 5679 5677 5674 5671
5856 5856 5855 5854 5853 5852 5851 5850 5849 5848 5847 5846 5845 5843 5842 5840 5839 5837 5835 5833 5831 5829 5828 5826 5825 5823 5822 5820 5818 5816 5815 5813 5811 5809 5807 5805 5803 5801 5798 5796 5795 5793 5791 5789 5787 5785 5782 5780 5777 5775 5772 5769 5767 5763 5761 5759 5756 5753 5750 5747 5744 5741 5738 5735 5732 5730 5726 5723 5720 5719 5721 5720 5712 5705 5703 5701 5698 5694 5691 5689 5686 5683 5680 5678 5675 5672 5668 5664
5854 5853 5853 5852 5851 5850 5849 5849 5847 5846 5845 5844 5843 5842 5840 5839 5837 5836 5834 5832 5830 5828 5827 5825 5823 5821 5820 5818 5816 5814 5812 5810 5808 5807 5805 5802 5800 5797 5795 5793 5791 5790 5789 5787 5785 5782 5780 5777 5774 5772 5770 5767 5764 5761 5757 5755 5753 5750 5747 5744 5741 5737 5734 5732 5729 5726 5722 5719 5715 5712 5714 5715 5707 5699 5697 5696 5693 5689 5684 5682 5680 5677 5675 5672 5669 5665 5661 5657
5851 5851 5850 5850 5849 5848 5847 5846 5846 5845 5844 5842 5841 5840 5839 5837 5836 5834 5832 5831 5829 5827 5825 5824 5822 5820 5818 5816 5814 5812 5810 5808 5806 5804 5802 5799 5797 5794 5791 5789 5788 5787 5785 5783 5781 5779 5777 5775 5772 5769 5766 5764 5761 5758 5754 5751 5749 5746 5743 5740 5737 5734 5731 5728 5726 5724 5719 5716 5712 5706 5709 5710 5701 5694 5693 5691 5688 5684 5680 5677 5674 5671 5668 5664 5661 5657 5653 5650
5849 5848 5848 5847 5847 5846 5845 5844 5843 5842 5841 5840 5839 5838 5837 5835 5834 5832 5830 5829 5827 5826 5824 5822 5820 5818 5816 5814 5812 5810 5807 5805 5803 5801 5799 5796 5793 5791 5788 5786 5784 5782 5781 5779 5778 5776 5773 5771 5769 5766 5763 5761 5759 5756 5752 5748 5745 5743 5739 5736 5733 5730 5727 5723 5721 5720 5716 5713 5708 5702 5704 5705 5697 5690 5689 5686 5682 5680 5677 5673 5669 5665 5662 5658 5654 5650 5647 5644
5847 5846 5845 5845 5844 5843 5843 5842 5841 5840 5839 5838 5837 5836 5834 5833 5831 5830 5828 5827 5825 5823 5822 5820 5818 5816 5814 5811 5810 5808 5805 5803 5801 5799 5796 5794 5791 5788 5786 5783 5781 5778 5777 5775 5774 5772 5769 5767 5765 5763 5760 5757 5755 5752 5749 5745 5741 5739 5735 5732 5729 5727 5724 5719 5715 5713 5711 5708 5704 5699 5699 5698 5692 5687 5684 5681 5678 5675 5672 5668 5664 5661 5657 5652 5649 5644 5641 5637
5844 5844 5843 5843 5842 5841 5840 5839 5839 5838 5837 5835 5834 5833 5831 5830 5828 5827 5825 5824 5822 5821 5819 5817 5816 5814 5811 5809 5807 5806 5804 5801 5799 5797 5794 5792 5790 5787 5784 5781 5778 5776 5773 5772 5770 5768 5765 5763 5762 5760 5757 5754 5752 5749 5747 5743 5738 5735 5732 5728 5726 5723 5720 5716 5711 5707 5705 5703 5699 5695 5693 5692 5688 5683 5679 5676 5673 5670 5666 5663 5659 5656 5651 5647 5643 5639 5635 5631
5842 5841 5841 5840 5839 5839 5838 5837 5836 5835 5834 5833 5831 5830 5828 5827 5826 5824 5823 5821 5820 5818 5816 5815 5813 5811 5809 5807 5805 5804 5802 5800 5798 5796 5793 5791 5788 5785 5783 5780 5777 5774 5771 5768 5767 5765 5762 5759 5757 5755 5753 5750 5748 5746 5743 5740 5735 5731 5728 5724 5721 5719 5715 5712 5708 5703 5700 5698 5695 5691 5688 5686 5683 5679 5674 5671 5668 5664 5660 5657 5653 5649 5645 5641 5637 5633 5629 5625
5839 5838 5838 5837 5837 5836 5836 5835 5834 5833 5832 5830 5829 5827 5826 5825 5823 5822 5820 5819 5817 5816 5814 5812 5811 5809 5806 5805 5803 5802 5800 5798 5796 5794 5792 5789 5787 5784 5781 5778 5775 5772 5768 5765 5764 5762 5759 5755 5753 5751 5747 5744 5742 5740 5737 5734 5730 5726 5722 5719 5716 5713 5710 5707 5703 5699 5695 5694 5692 5687 5684 5682 5679 5674 5670 5667 5663 5659 5656 5651 5647 5643 5639 5635 5631 5627 5623 5619
5836 5836 5835 5835 5834 5834 5833 5832 5831 5830 5829 5827 5826 5825 5823 5822 5821 5820 5818 5816 5815 5814 5812 5810 5809 5806 5804 5802 5801 5799 5798 5796 5794 5792 5790 5787 5785 5782 5779 5776 5773 5770 5766 5762 5760 5759 5756 5753 5750 5748 5745 5740 5737 5735 5732 5728 5725 5721 5717 5714 5711 5708 5705 5702 5698 5694 5691 5689 5688 5684 5680 5679 5675 5669 5666 5663 5658 5655 5651 5647 5643 5638 5634 5630 5626 5622 5618 5614
5833 5832 5832 5832 5831 5831 5830 5829 5828 5827 5825 5824 5823 5822 5821 5820 5818 5817 5816 5814 5813 5812 5810 5808 5806 5804 5802 5800 5798 5796 5795 5793 5792 5790 5788 5785 5782 5780 5777 5774 5770 5767 5764 5759 5757 5755 5753 5750 5747 5745 5742 5738 5734 5732 5729 5725 5721 5717 5713 5710 5707 5704 5701 5698 5694 5690 5687 5685 5684 5680 5676 5674 5670 5665 5661 5658 5654 5650 5646 5642 5638 5633 5629 5625 5621 5617 5613 5608
5829 5829 5829 5828 5828 5827 5827 5826 5825 5824 5822 5821 5820 5819 5818 5817 5816 5815 5813 5812 5811 5809 5807 5806 5804 5802 5800 5798 5796 5793 5792 5790 5788 5787 5785 5782 5780 5777 5774 5771 5768 5764 5761 5756 5753 5751 5749 5746 5744 5741 5738 5735 5731 5728 5726 5722 5717 5713 5710 5707 5704 5700 5697 5695 5691 5687 5683 5681 5679 5676 5672 5669 5665 5661 5657 5652 5649 5645 5641 5637 5633 5628 5623 5619 5616 5612 5608 5604
5826 5826 5826 5825 5825 5824 5823 5822 5822 5821 5819 5818 5817 5816 5815 5814 5813 5812 5810 5809 5808 5806 5804 5803 5801 5799 5797 5795 5793 5791 5789 5787 5785 5783 5781 5779 5777 5774 5771 5768 5765 5761 5757 5753 5750 5747 5745 5743 5740 5737 5735 5731 5727 5725 5723 5719 5714 5709 5707 5704 5701 5697 5694 5691 5688 5684 5680 5678 5675 5672 5668 5664 5659 5656 5652 5647 5644 5640 5636 5632 5628 5622 5618 5614 5610 5606 5602 5598
5823 5823 5822 5822 5822 5821 5820 5819 5818 5817 5816 5816 5814 5813 5812 5811 5810 5809 5807 5806 5804 5803 5802 5800 5798 5797 5794 5792 5790 5788 5786 5784 5782 5780 5778 5775 5773 5770 5767 5764 5760 5757 5753 5749 5745 5743 5741 5740 5737 5733 5731 5728 5724 5721 5719 5716 5710 5706 5704 5701 5698 5695 5691 5687 5684 5680 5676 5674 5670 5667 5664 5660 5655 5651 5648 5643 5638 5635 5631 5627 5622 5617 5612 5608 5604 5599 5595 5591
5820 5820 5819 5819 5818 5818 5817 5816 5815 5814 5813 5812 5811 5810 5809 5807 5806 5805 5804 5803 5802 5800 5799 5797 5796 5794 5791 5789 5787 5785 5783 5781 5779 5777 5774 5771 5769 5766 5763 5760 5756 5752 5749 5744 5741 5739 5738 5737 5733 5729 5727 5725 5721 5718 5716 5713 5707 5703 5700 5698 5694 5691 5687 5683 5679 5675 5672 5670 5667 5663 5660 5656 5652 5647 5642 5637 5633 5629 5625 5620 5615 5611 5607 5602 5597 5593 5589 5585
5817 5816 5816 5815 5815 5814 5814 5813 5812 5810 5809 5809 5808 5807 5805 5804 5803 5802 5801 5800 5799 5797 5796 5794 5793 5791 5788 5786 5783 5781 5780 5778 5775 5773 5770 5768 5765 5762 5759 5755 5752 5748 5745 5740 5737 5736 5735 5733 5730 5726 5723 5721 5717 5714 5713 5709 5703 5699 5697 5694 5690 5687 5683 5679 5674 5670 5667 5665 5663 5659 5655 5650 5646 5641 5636 5632 5628 5623 5619 5614 5608 5605 5603 5598 5592 5587 5583 5579